| time (UTC) | temp F | wind direction | speed MPH | gust MPH | rain 1hr in | rain 24hr in | rain mn in | humidity % | barometer mb |
| 20260503192503 | 62 | 220 | 6.0 | 10.0 | 0.00 | 0.04 | 0.01 | 51 | 1020.1 |
| 20260503192010 | 62 | 233 | 5.0 | 11.0 | 0.00 | 0.04 | 0.01 | 50 | 1020.1 |
| 20260503191522 | 63 | 211 | 6.0 | 11.0 | 0.00 | 0.04 | 0.01 | 53 | 1020.2 |
| 20260503191006 | 62 | 168 | 5.0 | 11.0 | 0.00 | 0.04 | 0.01 | 51 | 1020.3 |
| 20260503190507 | 62 | 155 | 6.0 | 11.0 | 0.00 | 0.04 | 0.01 | 50 | 1020.3 |
| 20260503190025 | 63 | 186 | 6.0 | 10.0 | 0.00 | 0.04 | 0.01 | 49 | 1020.3 |
| 20260503185502 | 61 | 206 | 2.0 | 13.0 | 0.00 | 0.04 | 0.01 | 54 | 1020.4 |
| 20260503185003 | 61 | 179 | 7.0 | 12.0 | 0.00 | 0.04 | 0.01 | 52 | 1020.4 |
| 20260503184509 | 62 | 236 | 3.0 | 14.0 | 0.00 | 0.04 | 0.01 | 51 | 1020.4 |
| 20260503184003 | 62 | 193 | 1.0 | 14.0 | 0.00 | 0.04 | 0.01 | 55 | 1020.5 |
| 20260503183505 | 61 | 202 | 6.0 | 13.0 | 0.00 | 0.04 | 0.01 | 57 | 1020.5 |
| 20260503183023 | 60 | 173 | 3.0 | 13.0 | 0.00 | 0.04 | 0.01 | 54 | 1020.6 |
| 20260503182503 | 61 | 132 | 3.0 | 14.0 | 0.00 | 0.04 | 0.01 | 53 | 1020.7 |
| 20260503182007 | 60 | 170 | 7.0 | 13.0 | 0.00 | 0.04 | 0.01 | 52 | 1020.9 |
| 20260503181528 | 60 | 227 | 7.0 | 13.0 | 0.00 | 0.04 | 0.01 | 53 | 1021.0 |
| 20260503181004 | 59 | 172 | 3.0 | 13.0 | 0.00 | 0.04 | 0.01 | 58 | 1021.0 |
| 20260503180507 | 60 | 212 | 4.0 | 13.0 | 0.00 | 0.04 | 0.01 | 54 | 1021.0 |
| 20260503180025 | 61 | 212 | 4.0 | 12.0 | 0.00 | 0.04 | 0.01 | 56 | 1021.0 |
| 20260503175506 | 60 | 223 | 2.0 | 10.0 | 0.00 | 0.04 | 0.01 | 57 | 1021.0 |
| 20260503175010 | 60 | 153 | 4.0 | 10.0 | 0.00 | 0.04 | 0.01 | 60 | 1021.2 |
| 20260503174523 | 59 | 239 | 5.0 | 10.0 | 0.00 | 0.04 | 0.01 | 53 | 1021.4 |
| 20260503174006 | 60 | 248 | 4.0 | 10.0 | 0.00 | 0.04 | 0.01 | 55 | 1021.4 |
| 20260503173503 | 60 | 250 | 1.0 | 9.0 | 0.00 | 0.04 | 0.01 | 55 | 1021.3 |
| 20260503173036 | 58 | 261 | 2.0 | 9.0 | 0.00 | 0.04 | 0.01 | 54 | 1021.4 |
| 20260503172502 | 59 | 254 | 2.0 | 12.0 | 0.00 | 0.04 | 0.01 | 57 | 1021.4 |
| 20260503172004 | 58 | 202 | 5.0 | 12.0 | 0.00 | 0.04 | 0.01 | 55 | 1021.5 |
| 20260503171514 | 58 | 198 | 3.0 | 10.0 | 0.00 | 0.04 | 0.01 | 53 | 1021.5 |
| 20260503171004 | 58 | 208 | 2.0 | 10.0 | 0.00 | 0.04 | 0.01 | 56 | 1021.6 |
| 20260503170505 | 58 | 236 | 4.0 | 10.0 | 0.00 | 0.04 | 0.01 | 54 | 1021.7 |
| 20260503151008 | 53 | 300 | 2.0 | 6.0 | 0.00 | 0.04 | 0.01 | 73 | 1022.6 |
| 20260503150514 | 54 | 239 | 3.0 | 6.0 | 0.00 | 0.04 | 0.01 | 80 | 1022.6 |
| 20260503131010 | 44 | 167 | 0.0 | 5.0 | 0.00 | 0.04 | 0.01 | 96 | 1022.4 |
| 20260503130509 | 43 | 169 | 1.0 | 5.0 | 0.00 | 0.04 | 0.01 | 96 | 1022.5 |
| 20260503110502 | 42 | 114 | 1.0 | 3.0 | 0.00 | 0.04 | 0.01 | 95 | 1021.0 |
| 20260503090502 | 43 | 164 | 0.0 | 0.0 | 0.00 | 0.04 | 0.01 | 94 | 1020.5 |
| 20260503081514 | 42 | 164 | 0.0 | 0.0 | 0.01 | 0.04 | 0.01 | 94 | 1020.5 |
| 20260503081002 | 42 | 164 | 0.0 | 0.0 | 0.01 | 0.04 | 0.01 | 94 | 1020.4 |
| 20260503080502 | 42 | 164 | 0.0 | 0.0 | 0.01 | 0.04 | 0.01 | 94 | 1020.4 |
| 20260503072506 | 42 | 97 | 0.0 | 0.0 | 0.00 | 0.03 | 0.00 | 93 | 1020.2 |
| 20260503072004 | 42 | 97 | 0.0 | 2.0 | 0.00 | 0.03 | 0.00 | 93 | 1020.1 |
| 20260503071516 | 42 | 97 | 0.0 | 3.0 | 0.00 | 0.03 | 0.00 | 93 | 1020.0 |
| 20260503071003 | 42 | 97 | 1.0 | 3.0 | 0.00 | 0.03 | 0.00 | 93 | 1019.9 |
| 20260503070503 | 42 | 97 | 0.0 | 0.0 | 0.00 | 0.03 | 0.00 | 92 | 1019.9 |
| 20260503055002 | 42 | 97 | 1.0 | 2.0 | 0.00 | 0.03 | 0.00 | 91 | 1019.9 |
| 20260503054521 | 42 | 97 | 0.0 | 2.0 | 0.00 | 0.03 | 0.00 | 91 | 1019.9 |
| 20260503054005 | 42 | 97 | 0.0 | 2.0 | 0.00 | 0.03 | 0.00 | 91 | 1019.9 |
| 20260503053505 | 42 | 97 | 1.0 | 2.0 | 0.00 | 0.03 | 0.00 | 91 | 1019.8 |
| 20260503053015 | 42 | 97 | 0.0 | 1.0 | 0.00 | 0.03 | 0.00 | 91 | 1019.8 |
| 20260503052505 | 42 | 97 | 0.0 | 1.0 | 0.00 | 0.03 | 0.00 | 91 | 1019.8 |
| 20260503052006 | 42 | 97 | 0.0 | 2.0 | 0.00 | 0.03 | 0.00 | 91 | 1019.8 |
| 20260503051514 | 42 | 97 | 0.0 | 2.0 | 0.00 | 0.03 | 0.00 | 91 | 1019.8 |
| 20260503051008 | 42 | 97 | 1.0 | 2.0 | 0.00 | 0.03 | 0.00 | 90 | 1019.7 |
| 20260503050505 | 42 | 97 | 0.0 | 2.0 | 0.00 | 0.03 | 0.00 | 90 | 1019.7 |
| 20260503050007 | 42 | 97 | 0.0 | 0.0 | 0.00 | 0.03 | 0.00 | 90 | 1019.6 |
| 20260503045503 | 42 | 97 | 0.0 | 0.0 | 0.00 | 0.03 | 0.03 | 90 | 1019.6 |
| 20260503045002 | 42 | 97 | 0.0 | 0.0 | 0.00 | 0.03 | 0.03 | 90 | 1019.5 |
| 20260503044513 | 42 | 97 | 0.0 | 1.0 | 0.00 | 0.03 | 0.03 | 90 | 1019.5 |
| 20260503044004 | 42 | 97 | 0.0 | 1.0 | 0.00 | 0.03 | 0.03 | 89 | 1019.5 |
| 20260503043503 | 42 | 97 | 0.0 | 2.0 | 0.00 | 0.03 | 0.03 | 89 | 1019.4 |
| 20260503043008 | 42 | 97 | 0.0 | 2.0 | 0.00 | 0.03 | 0.03 | 89 | 1019.5 |
| 20260503042502 | 43 | 97 | 0.0 | 2.0 | 0.00 | 0.03 | 0.03 | 89 | 1019.5 |
| 20260503042002 | 43 | 97 | 0.0 | 2.0 | 0.00 | 0.03 | 0.03 | 89 | 1019.4 |
| 20260503041510 | 43 | 97 | 0.0 | 0.0 | 0.00 | 0.03 | 0.03 | 89 | 1019.4 |
| 20260503041003 | 43 | 97 | 0.0 | 1.0 | 0.00 | 0.03 | 0.03 | 89 | 1019.4 |
| 20260503040506 | 44 | 97 | 0.0 | 1.0 | 0.00 | 0.03 | 0.03 | 89 | 1019.3 |
| 20260503040014 | 44 | 97 | 0.0 | 2.0 | 0.00 | 0.03 | 0.03 | 89 | 1019.3 |
| 20260503035503 | 44 | 97 | 0.0 | 2.0 | 0.00 | 0.03 | 0.03 | 89 | 1019.3 |
| 20260503035003 | 44 | 97 | 0.0 | 2.0 | 0.00 | 0.03 | 0.03 | 89 | 1019.3 |
| 20260503034512 | 45 | 97 | 0.0 | 0.0 | 0.00 | 0.03 | 0.03 | 89 | 1019.3 |
| 20260503034002 | 45 | 97 | 0.0 | 0.0 | 0.00 | 0.03 | 0.03 | 89 | 1019.3 |
| 20260503033501 | 45 | 97 | 0.0 | 0.0 | 0.00 | 0.03 | 0.03 | 89 | 1019.3 |
| 20260503033013 | 45 | 97 | 0.0 | 0.0 | 0.00 | 0.03 | 0.03 | 89 | 1019.3 |
| 20260503032503 | 45 | 97 | 0.0 | 0.0 | 0.00 | 0.03 | 0.03 | 89 | 1019.3 |
| 20260503032005 | 45 | 97 | 0.0 | 0.0 | 0.00 | 0.03 | 0.03 | 89 | 1019.3 |
| 20260503031512 | 46 | 97 | 0.0 | 0.0 | 0.00 | 0.03 | 0.03 | 89 | 1019.4 |
| 20260503031003 | 46 | 97 | 0.0 | 0.0 | 0.00 | 0.03 | 0.03 | 89 | 1019.4 |
| 20260503030503 | 46 | 97 | 0.0 | 0.0 | 0.00 | 0.03 | 0.03 | 89 | 1019.3 |
| 20260503030013 | 46 | 97 | 0.0 | 0.0 | 0.00 | 0.03 | 0.03 | 89 | 1019.2 |
| 20260503025502 | 46 | 97 | 0.0 | 0.0 | 0.00 | 0.03 | 0.03 | 89 | 1019.2 |
| 20260503025002 | 45 | 97 | 0.0 | 0.0 | 0.00 | 0.03 | 0.03 | 89 | 1019.2 |
| 20260503024512 | 45 | 97 | 0.0 | 0.0 | 0.00 | 0.03 | 0.03 | 89 | 1019.1 |
| 20260503024003 | 45 | 97 | 0.0 | 0.0 | 0.00 | 0.03 | 0.03 | 88 | 1019.1 |
| 20260503023504 | 45 | 97 | 0.0 | 0.0 | 0.00 | 0.03 | 0.03 | 88 | 1019.1 |
| 20260503023013 | 45 | 97 | 0.0 | 0.0 | 0.00 | 0.03 | 0.03 | 88 | 1019.0 |
| 20260503022506 | 45 | 97 | 0.0 | 0.0 | 0.00 | 0.03 | 0.03 | 88 | 1019.0 |
| 20260503022003 | 45 | 97 | 0.0 | 0.0 | 0.00 | 0.03 | 0.03 | 88 | 1019.0 |
| 20260503021524 | 45 | 97 | 0.0 | 1.0 | 0.00 | 0.03 | 0.03 | 87 | 1019.0 |
| 20260503021006 | 45 | 97 | 0.0 | 1.0 | 0.00 | 0.03 | 0.03 | 87 | 1019.0 |
| 20260503020505 | 45 | 97 | 0.0 | 3.0 | 0.00 | 0.03 | 0.03 | 87 | 1019.0 |
| 20260503020030 | 45 | 97 | 0.0 | 6.0 | 0.00 | 0.03 | 0.03 | 87 | 1018.8 |
| 20260503015506 | 45 | 97 | 1.0 | 6.0 | 0.00 | 0.03 | 0.03 | 87 | 1018.8 |
| 20260503015007 | 46 | 102 | 2.0 | 4.0 | 0.00 | 0.03 | 0.03 | 87 | 1018.8 |
| 20260503014516 | 46 | 352 | 2.0 | 5.0 | 0.00 | 0.03 | 0.03 | 87 | 1018.9 |
| 20260503014005 | 46 | 5 | 3.0 | 5.0 | 0.00 | 0.03 | 0.03 | 87 | 1019.0 |
| 20260503013503 | 46 | 335 | 2.0 | 4.0 | 0.00 | 0.03 | 0.03 | 87 | 1019.0 |
| 20260503013016 | 47 | 317 | 2.0 | 5.0 | 0.00 | 0.03 | 0.03 | 86 | 1019.0 |
| 20260503012503 | 47 | 355 | 2.0 | 5.0 | 0.00 | 0.03 | 0.03 | 86 | 1018.9 |
| 20260503012005 | 47 | 315 | 1.0 | 4.0 | 0.01 | 0.03 | 0.03 | 86 | 1018.9 |
| 20260503011519 | 47 | 312 | 1.0 | 3.0 | 0.01 | 0.03 | 0.03 | 86 | 1018.9 |
| 20260503011005 | 47 | 311 | 0.0 | 3.0 | 0.02 | 0.03 | 0.03 | 86 | 1018.8 |
| 20260503010507 | 48 | 311 | 0.0 | 3.0 | 0.03 | 0.03 | 0.03 | 85 | 1018.8 |
| 20260503010017 | 48 | 311 | 0.0 | 0.0 | 0.03 | 0.03 | 0.03 | 85 | 1018.6 |
| 20260503005507 | 48 | 311 | 0.0 | 2.0 | 0.03 | 0.03 | 0.03 | 85 | 1018.6 |
| 20260503005004 | 48 | 311 | 0.0 | 2.0 | 0.03 | 0.03 | 0.03 | 84 | 1018.6 |
| 20260503004543 | 48 | 311 | 1.0 | 4.0 | 0.03 | 0.03 | 0.03 | 84 | 1018.6 |
| 20260503004007 | 48 | 311 | 1.0 | 5.0 | 0.03 | 0.03 | 0.03 | 83 | 1018.6 |
| 20260503003513 | 49 | 5 | 2.0 | 5.0 | 0.03 | 0.03 | 0.03 | 83 | 1018.5 |
| 20260503003029 | 49 | 294 | 1.0 | 5.0 | 0.03 | 0.03 | 0.03 | 83 | 1018.6 |
| 20260503002506 | 49 | 274 | 0.0 | 4.0 | 0.03 | 0.03 | 0.03 | 82 | 1018.4 |
| 20260503002006 | 49 | 274 | 0.0 | 4.0 | 0.02 | 0.02 | 0.02 | 81 | 1018.4 |
| 20260503001520 | 50 | 274 | 1.0 | 7.0 | 0.02 | 0.02 | 0.02 | 80 | 1018.3 |
| 20260503001005 | 50 | 257 | 0.0 | 7.0 | 0.01 | 0.01 | 0.01 | 79 | 1018.2 |
| 20260503000504 | 50 | 252 | 1.0 | 7.0 | 0.00 | 0.00 | 0.00 | 77 | 1018.1 |
| 20260503000029 | 51 | 327 | 1.0 | 9.0 | 0.00 | 0.00 | 0.00 | 76 | 1017.6 |
| 20260502235506 | 51 | 321 | 3.0 | 9.0 | 0.00 | 0.00 | 0.00 | 74 | 1017.3 |
| 20260502235008 | 51 | 338 | 3.0 | 9.0 | 0.00 | 0.00 | 0.00 | 73 | 1017.1 |
| 20260502234536 | 51 | 331 | 3.0 | 8.0 | 0.00 | 0.00 | 0.00 | 71 | 1016.9 |
| 20260502234009 | 52 | 5 | 4.0 | 8.0 | 0.00 | 0.00 | 0.00 | 71 | 1016.9 |
| 20260502233509 | 52 | 347 | 3.0 | 15.0 | 0.00 | 0.00 | 0.00 | 70 | 1016.8 |
| 20260502233021 | 52 | 28 | 6.0 | 15.0 | 0.00 | 0.00 | 0.00 | 70 | 1016.7 |
| 20260502232507 | 52 | 342 | 3.0 | 10.0 | 0.00 | 0.00 | 0.00 | 71 | 1016.7 |
| 20260502232007 | 53 | 360 | 4.0 | 11.0 | 0.00 | 0.00 | 0.00 | 70 | 1016.7 |
| 20260502231530 | 53 | 355 | 4.0 | 11.0 | 0.00 | 0.00 | 0.00 | 69 | 1016.6 |
| 20260502231011 | 54 | 333 | 4.0 | 11.0 | 0.00 | 0.00 | 0.00 | 68 | 1016.7 |
| 20260502230507 | 55 | 317 | 6.0 | 10.0 | 0.00 | 0.00 | 0.00 | 64 | 1016.6 |
| 20260502230024 | 55 | 306 | 2.0 | 6.0 | 0.00 | 0.00 | 0.00 | 65 | 1016.5 |
| 20260502225506 | 55 | 348 | 2.0 | 9.0 | 0.00 | 0.00 | 0.00 | 66 | 1016.4 |
| 20260502225005 | 55 | 296 | 3.0 | 11.0 | 0.00 | 0.00 | 0.00 | 59 | 1016.4 |
| 20260502224516 | 56 | 332 | 5.0 | 11.0 | 0.00 | 0.00 | 0.00 | 58 | 1016.4 |
| 20260502224012 | 56 | 334 | 2.0 | 6.0 | 0.00 | 0.00 | 0.00 | 59 | 1016.4 |
| 20260502223504 | 57 | 5 | 2.0 | 8.0 | 0.00 | 0.00 | 0.00 | 58 | 1016.3 |
| 20260502223035 | 58 | 339 | 4.0 | 8.0 | 0.00 | 0.00 | 0.00 | 56 | 1016.3 |
| 20260502222507 | 58 | 355 | 2.0 | 12.0 | 0.00 | 0.00 | 0.00 | 52 | 1016.1 |
| 20260502222007 | 59 | 28 | 7.0 | 12.0 | 0.00 | 0.00 | 0.00 | 50 | 1015.9 |
| 20260502221525 | 59 | 31 | 4.0 | 11.0 | 0.00 | 0.00 | 0.00 | 55 | 1015.8 |
| 20260502221013 | 59 | 23 | 5.0 | 11.0 | 0.00 | 0.00 | 0.00 | 55 | 1015.9 |
| 20260502220503 | 60 | 355 | 6.0 | 10.0 | 0.00 | 0.00 | 0.00 | 50 | 1015.8 |
| 20260502220008 | 61 | 355 | 4.0 | 11.0 | 0.00 | 0.00 | 0.00 | 55 | 1015.6 |
| 20260502215504 | 59 | 338 | 4.0 | 11.0 | 0.00 | 0.00 | 0.00 | 55 | 1015.6 |
| 20260502215002 | 60 | 15 | 5.0 | 10.0 | 0.00 | 0.00 | 0.00 | 51 | 1015.8 |
| 20260502214512 | 60 | 324 | 4.0 | 14.0 | 0.00 | 0.00 | 0.00 | 48 | 1015.7 |
| 20260502214011 | 60 | 338 | 6.0 | 14.0 | 0.00 | 0.00 | 0.00 | 50 | 1015.6 |
| 20260502213507 | 61 | 28 | 6.0 | 15.0 | 0.00 | 0.00 | 0.00 | 54 | 1015.6 |
| 20260502213022 | 60 | 27 | 11.0 | 15.0 | 0.00 | 0.00 | 0.00 | 50 | 1015.7 |
| 20260502212506 | 60 | 343 | 7.0 | 12.0 | 0.00 | 0.00 | 0.00 | 51 | 1015.6 |
| 20260502212006 | 61 | 337 | 6.0 | 12.0 | 0.00 | 0.00 | 0.00 | 54 | 1015.8 |
| 20260502211530 | 61 | 325 | 7.0 | 14.0 | 0.00 | 0.00 | 0.00 | 48 | 1015.9 |
| 20260502211006 | 60 | 316 | 6.0 | 14.0 | 0.00 | 0.00 | 0.00 | 51 | 1016.0 |
| 20260502210513 | 58 | 332 | 5.0 | 15.0 | 0.00 | 0.00 | 0.00 | 52 | 1016.0 |
| 20260502210024 | 59 | 335 | 6.0 | 15.0 | 0.00 | 0.00 | 0.00 | 49 | 1016.0 |
| 20260502205513 | 61 | 329 | 8.0 | 14.0 | 0.00 | 0.00 | 0.00 | 50 | 1015.9 |
| 20260502205009 | 61 | 335 | 5.0 | 13.0 | 0.00 | 0.00 | 0.00 | 48 | 1015.9 |
| 20260502204511 | 61 | 298 | 3.0 | 8.0 | 0.00 | 0.00 | 0.00 | 48 | 1016.0 |
| 20260502204005 | 60 | 326 | 2.0 | 8.0 | 0.00 | 0.00 | 0.00 | 54 | 1016.0 |
| 20260502203506 | 61 | 317 | 1.0 | 8.0 | 0.00 | 0.00 | 0.00 | 51 | 1016.1 |
| 20260502203018 | 63 | 295 | 2.0 | 8.0 | 0.00 | 0.00 | 0.00 | 45 | 1016.1 |
| 20260502202505 | 63 | 272 | 3.0 | 10.0 | 0.00 | 0.00 | 0.00 | 47 | 1016.1 |
| 20260502202007 | 63 | 279 | 4.0 | 12.0 | 0.00 | 0.00 | 0.00 | 51 | 1016.1 |
| 20260502201525 | 61 | 350 | 7.0 | 12.0 | 0.00 | 0.00 | 0.00 | 44 | 1016.2 |
| 20260502201005 | 62 | 324 | 4.0 | 9.0 | 0.00 | 0.00 | 0.00 | 47 | 1016.3 |
| 20260502200506 | 62 | 307 | 1.0 | 8.0 | 0.00 | 0.00 | 0.00 | 54 | 1016.3 |
| 20260502200022 | 61 | 24 | 3.0 | 6.0 | 0.00 | 0.00 | 0.00 | 50 | 1016.4 |
| 20260502195508 | 58 | 267 | 1.0 | 9.0 | 0.00 | 0.00 | 0.00 | 56 | 1016.5 |
| 20260502195002 | 58 | 306 | 4.0 | 11.0 | 0.00 | 0.00 | 0.00 | 49 | 1016.5 |
| 20260502194512 | 58 | 310 | 4.0 | 11.0 | 0.00 | 0.00 | 0.00 | 50 | 1016.4 |
| 20260502194002 | 59 | 336 | 4.0 | 11.0 | 0.00 | 0.00 | 0.00 | 53 | 1016.4 |
| 20260502193506 | 59 | 331 | 4.0 | 12.0 | 0.00 | 0.00 | 0.00 | 56 | 1016.5 |
| 20260502193012 | 60 | 318 | 4.0 | 12.0 | 0.00 | 0.00 | 0.00 | 46 | 1016.6 |